Location: Aurora Center
(43.5271°N, 98.5894°W)
Time: 00:34:06
(UTC-06:00)

deb Delta 98 - Visible Passes

Search period start: 11 November 2024 00:00
Search period end: 21 November 2024 00:00
Orbit: 1503 x 1646 km, 101.9° (Epoch: 10 November)

Date Brightness Start Highest point End Pass type
(mag) Time Alt. Az. Time Alt. Az. Time Alt. Az.
11 Nov ? 06:08:41 10° NE 06:15:59 30° E 06:23:10 10° SSE visible
11 Nov ? 19:20:01 10° SSW 19:28:11 36° W 19:36:15 10° NNW visible
12 Nov ? 05:42:27 10° NE 05:48:20 20° E 05:54:09 10° SE visible
12 Nov ? 18:51:58 10° S 19:00:46 51° WSW 19:09:25 10° NNW visible
13 Nov ? 05:17:30 10° ENE 05:20:34 12° E 05:23:36 10° ESE visible
13 Nov ? 18:24:22 10° S 18:33:28 71° WSW 18:42:23 10° NNW visible
13 Nov ? 20:25:56 10° WSW 20:30:18 14° W 20:34:40 10° WNW visible
14 Nov ? 06:42:00 10° NNE 06:50:16 47° E 06:58:23 10° S visible
14 Nov ? 17:57:09 10° SSE 18:06:16 86° ENE 18:15:12 10° NNW visible
14 Nov ? 19:55:57 10° SW 20:02:35 22° W 20:09:10 10° NW visible
15 Nov ? 06:15:14 10° NE 06:22:47 33° E 06:30:14 10° SSE visible
15 Nov ? 17:30:16 10° SE 17:39:12 64° ENE 17:47:54 10° NNW visible
15 Nov ? 19:27:08 10° SSW 19:35:01 33° W 19:42:48 10° NW visible
16 Nov ? 05:48:52 10° NE 05:55:11 22° E 06:01:27 10° SE visible
16 Nov ? 18:58:56 10° S 19:07:34 46° W 19:16:03 10° NNW visible
17 Nov ? 05:23:22 10° ENE 05:27:27 14° E 05:31:30 10° ESE visible
17 Nov ? 18:31:14 10° S 18:40:14 65° WSW 18:49:04 10° NNW visible
17 Nov ? 20:33:59 10° WSW 20:37:14 12° W 20:40:27 10° WNW visible
18 Nov ? 06:48:40 10° NNE 06:57:00 52° ESE 07:05:16 10° S visible
18 Nov ? 18:03:54 10° SSE 18:13:01 88° WSW 18:21:55 10° NNW visible
18 Nov ? 20:03:22 10° SW 20:09:28 20° W 20:15:32 10° NW visible
19 Nov ? 06:21:49 10° NNE 06:29:35 36° E 06:37:15 10° SSE visible
19 Nov ? 17:36:57 10° SSE 17:45:54 70° ENE 17:54:38 10° NNW visible
19 Nov ? 19:34:18 10° SSW 19:41:52 29° W 19:49:20 10° NW visible
20 Nov ? 05:55:18 10° NE 06:02:01 25° E 06:08:39 10° SE visible
20 Nov ? 19:05:57 10° SSW 19:14:23 42° W 19:22:39 10° NNW visible
